Regional Weather Roundup
Issued by NWS State College, PA

Home | Current Version | Previous Version | Text Only | Print | Product List | Glossary On
Versions: 1 2 3 4 5 6 7 8 9 10 11 12 13 14 15 16 17 18 19 20 21 22 23 24 25 26 27 28 29 30 31 32 33 34 35 36 37 38 39 40 41 42 43 44 45 46 47 48 49 50
000
ASUS41 KCTP 291010
RWRCTP

REGIONAL WEATHER ROUNDUP
NATIONAL WEATHER SERVICE STATE COLLEGE PA
500 AM EST MON DEC 29 2014

Note: "fair" indicates few or no clouds below 12,000 feet with no
significant weather and/or obstructions to visibility.

* = STATION THAT DOES NOT REPORT PRECIPITATION /E.G. RAIN...SNOW...ETC/
    THUNDER OR FOG.

PAZ002>004-007>009-013>016-020>023-029>032-291100-
WESTERN PENNSYLVANIA

CITY           SKY/WX    TMP DP  RH WIND       PRES   REMARKS
ERIE           CLOUDY    33  21  61 NW5       30.19F
MEADVILLE      CLOUDY    29  23  78 CALM      30.16S
FRANKLIN*      MOCLDY    27  21  80 CALM      30.17R
NEW CASTLE       N/A     29  24  81 CALM      30.20S
BEAVER COUNTY  NOT AVBL
BUTLER*        PTCLDY    28  25  86 CALM      30.18S
PITTSBURGH INT CLOUDY    32  25  75 N7        30.17S
PITTSBURGH     CLOUDY    32  22  66 N8        30.16R
INDIANA*       PTCLDY    30  28  93 CALM      30.19R
LATROBE        CLOUDY    32  30  93 CALM      30.19S
WASHINGTON CO* NOT AVBL
$$

PAZ004>006-010>012-017>019-024>028-033>037-041-042-045-046-049>053-291100-
CENTRAL PENNSYLVANIA

CITY           SKY/WX    TMP DP  RH WIND       PRES   REMARKS
BRADFORD       MOCLDY    26  19  74 NW5       30.10F
DUBOIS         PTCLDY    28  23  81 NW3       30.11F
CLEARFIELD     MOCLDY    31  25  78 W6        30.13F
JOHNSTOWN      CLOUDY    29  25  85 NW7       30.09F
ALTOONA        CLOUDY    32  25  75 CALM      30.13F
STATE COLLEGE  PTCLDY    31  25  80 W6        30.13F
WILLIAMSPORT   MOCLDY    29  23  78 N3        30.14F
SELINSGROVE    MOCLDY    30  27  88 CALM      30.15F
FT INDIANTOWN  CLOUDY    35  24  62 NW3       30.16F
CAPITAL CITY   CLOUDY    36  25  64 W3        30.16F
HARRISBURG     CLOUDY    36  24  62 CALM      30.16S
YORK           CLOUDY    37  25  61 NW6       30.15F
$$

PAZ038>040-043-044-047-048-054-055-060>062-067>071-291100-
EASTERN PENNSYLVANIA

CITY           SKY/WX    TMP DP  RH WIND       PRES   REMARKS
SCRANTON       PTCLDY    32  22  66 SW9       30.13R
MOUNT POCONO   PTCLDY    29  20  69 NW8       30.06R
ALLENTOWN      MOCLDY    36  22  56 CALM      30.14R
QUAKERTOWN*    CLOUDY    32  25  74 CALM      30.15S
READING        MOCLDY    36  23  59 NW5       30.15S
LANCASTER      CLOUDY    36  26  67 N5        30.16R
COATESVILLE    CLOUDY    37  28  70 N7        30.13F
POTTSTOWN      CLOUDY    35  25  66 CALM      30.17R
BLUE BELL      CLOUDY    37  27  65 CALM      30.15S
DOYLESTOWN     CLOUDY    35  23  61 CALM      30.14S
WILLOW GROVE   NOT AVBL
NORTH PHILA    CLOUDY    40  22  48 N6        30.17R
PHILADELPHIA   CLOUDY    41  24  51 N12       30.16R
$$



USA.gov is the U.S. government's official web portal to all federal, state and local government web resources and services.